[[{"header":{"parameterUnit":"m.s-1","parameterCategory":1,"la1":30.2991,"la2":30.254,"lo1":-89.0895,"lo2":-89.0444,"dy":0.0017,"dx":0.0017,"nx":28,"ny":28,"refTime":"2023-08-15T03:00:00:Z","depth":0,"parameterNumber":2,"parameterNumberName":"U-component_of_WINDS"},"data":[0,0,0,0,0,0,0,0,0,0,0,0,0,0,0,0,0,0,0,0,0,0,0,0,0,0,0,0,0,0,0,0,0,0,0,0,0,0,0,0,0,0,0,0,0,0,0,0,0,0,0,0,0,0,0,0,0,0,2.7635,2.7636,0,2.7695,2.7696,2.7696,2.7648,2.7646,2.7644,2.7642,2.7709,2.7712,2.7716,0,0,0,0,0,0,0,0,0,0,0,0,0,2.7485,2.7488,2.7635,2.7636,2.7637,2.7695,2.7696,2.7696,2.7648,2.7646,2.7643,2.7641,2.7707,2.7712,2.7716,0,0,0,0,0,0,0,0,0,0,0,0,0,2.7548,2.7489,2.7635,2.7619,2.7619,2.7695,2.7696,2.7697,2.7649,2.7646,2.7643,2.764,2.7706,2.7711,2.7717,2.7813,0,0,2.7734,2.7736,0,0,0,0,0,0,0,0,2.7545,2.7554,2.7621,2.7621,2.762,2.7661,2.7667,2.7736,2.765,2.7638,2.7642,2.7638,2.7696,2.7702,2.772,2.7816,2.7819,2.7734,2.7738,2.774,2.7742,0,0,0,0,0,0,0,2.7541,2.7551,2.7659,2.7622,2.7621,2.7611,2.7617,2.768,2.7683,2.7638,2.7635,2.7642,2.7695,2.7715,2.7721,2.782,2.7734,2.7739,2.7742,2.7745,2.8,2.8003,0,0,0,0,0,0,2.7537,2.7548,2.7657,2.7661,2.7574,2.7617,2.7623,2.7651,2.7682,2.7684,2.7645,2.764,2.7707,2.7715,2.7723,2.7838,2.774,2.7745,2.7748,2.7996,2.8,2.8004,0,0,0,0,0,0,2.7534,2.7547,2.7655,2.7603,2.7616,2.7622,2.7654,2.7654,2.7673,2.7687,2.7688,2.7664,2.7705,2.7716,2.7791,2.784,2.7748,2.7753,2.7992,2.7997,2.8002,2.8069,0,0,0,0,0,0,2.753,2.7546,2.7581,2.7604,2.7619,2.7719,2.7657,2.7657,2.7682,2.7676,2.7706,2.7708,2.7703,2.7783,2.7796,2.7846,2.7757,2.7988,2.7994,2.8001,2.8062,2.8075,2.8087,0,0,0,0,0,2.7525,2.7599,2.7583,2.7597,2.7663,2.7722,2.7731,2.7722,2.7687,2.7723,2.7732,2.7707,2.7833,2.7791,2.7806,2.7858,2.7985,2.7993,2.8,2.8057,2.8073,2.8087,0,0,0,0,0,0,2.7583,2.7601,2.7585,2.7668,2.7694,2.7714,2.7759,2.774,2.7778,2.777,2.776,2.7767,2.7846,2.786,2.7813,2.7953,2.7903,2.7914,2.7941,2.7957,2.7969,2.7963,2.7762,0,0,0,0,0,2.7606,2.765,2.7665,2.7737,2.7751,2.7753,2.7779,2.777,2.7797,2.7808,2.7823,2.7852,2.7897,2.7928,2.7971,2.8064,2.8071,2.8108,2.812,2.813,2.8139,2.819,2.8207,2.8029,2.8029,2.8029,0,0,2.7653,2.7668,2.7698,2.7749,2.7768,2.7817,2.7763,2.7816,2.7852,2.7817,2.7888,2.79,2.7932,2.8017,2.8055,2.803,2.819,2.814,2.8148,2.8152,2.82,2.8217,2.8232,2.8035,2.8034,2.8033,0,0,2.7763,2.7779,2.7841,2.7861,2.7889,2.7891,2.7906,2.7929,2.7935,2.8006,2.7981,2.8025,2.8105,2.8128,2.8151,2.8271,2.825,2.8286,2.835,2.84,2.8414,2.8426,2.8469,2.8485,2.8296,2.8296,2.8296,0,2.7819,2.7888,2.7876,2.7931,2.7955,2.7924,2.7987,2.8008,2.805,2.8069,2.804,2.8139,2.8159,2.8249,2.8278,2.8298,2.8315,2.8282,2.8413,2.8425,2.8436,2.8477,2.8494,2.83,2.83,2.8299,2.8299,0,2.7955,2.8004,2.8051,2.8091,2.812,2.818,2.8178,2.821,2.82,2.8204,2.8278,2.83,2.8347,2.8369,2.8359,2.8458,2.8442,2.8414,2.8363,2.8458,2.8496,2.8512,2.8306,2.8304,2.8303,2.8302,0,0,2.8103,2.8135,2.8152,2.817,2.82,2.8238,2.8298,2.8342,2.8369,2.8401,2.845,2.8519,2.8493,2.8518,2.8512,2.8556,2.865,2.8522,2.8523,2.8545,2.8761,2.8781,2.8799,2.8636,2.8639,2.8642,2.8758,0,2.8215,2.8314,2.8305,2.8401,2.8446,2.8418,2.8469,2.8494,2.8501,2.8543,2.8551,2.8599,2.8561,2.8576,2.8619,2.8629,2.8693,2.8621,2.8684,2.8686,2.8675,2.8819,2.8841,2.8949,2.8773,2.8775,2.8777,0,2.8358,2.8391,2.849,2.8513,2.8532,2.8578,2.8618,2.8658,2.8686,2.8688,2.8717,2.8703,2.8765,2.8714,2.8799,2.875,2.8776,2.8786,2.879,2.8794,2.8737,2.8827,2.8983,2.8999,2.8801,2.8799,2.8797,0,2.8455,2.8526,2.8594,2.861,2.8638,2.8671,2.8685,2.8711,2.8738,2.8774,2.8792,2.8836,2.886,2.8895,2.8895,2.8857,2.8982,2.893,2.8986,2.8986,2.9012,2.901,2.9174,2.9031,2.903,2.903,2.903,0,2.858,2.8642,2.8638,2.868,2.8749,2.8739,2.8809,2.8819,2.8842,2.8887,2.8867,2.891,2.8907,2.8951,2.8952,2.9022,2.9034,2.9038,2.9037,2.9039,2.9039,2.9055,2.9047,2.9034,2.9033,2.9032,2.9032,0,2.87,2.87,2.8772,2.8793,2.88,2.885,2.8869,2.891,2.8914,2.8972,2.8985,2.8994,2.9045,2.9048,2.9108,2.9108,2.9194,2.9186,2.9183,2.9182,2.9237,2.9231,2.9416,2.9439,2.9281,2.9283,2.9284,0,2.878,2.8826,2.8851,2.8879,2.8894,2.8939,2.8966,2.896,2.8989,2.9026,2.9063,2.9111,2.915,2.9234,2.9247,2.9293,2.9285,2.9346,2.9292,2.9292,2.9285,2.9282,2.9287,2.9357,2.9359,2.936,2.9361,0,2.892,2.8918,2.8956,2.8995,2.9028,2.9059,2.9088,2.9113,2.911,2.9145,2.9195,2.9225,2.9285,2.9335,2.938,2.9397,2.9379,2.9378,2.9394,2.9396,2.9392,2.9394,2.9212,2.9374,2.9373,2.9372,2.9371,2.9371,2.9022,2.9062,2.9086,2.913,2.915,2.9178,2.9217,2.9226,2.9267,2.9314,2.9309,2.9366,2.9395,2.9453,2.9473,2.9519,2.9498,2.9521,2.9526,2.9531,2.9537,2.9386,2.9528,2.9527,2.9527,2.9527,2.9526,0,2.9162,2.9175,2.9215,2.9255,2.929,2.9269,2.93,2.9331,2.9381,2.9408,2.9446,2.9505,2.9553,2.957,2.9617,2.965,2.9644,2.9663,2.966,2.9664,2.9553,2.9534,2.9668,2.9668,2.9668,2.9668,2.9668,2.9667,2.9238,2.9304,2.9304,2.9381,2.9395,2.9448,2.9468,2.9494,2.9515,2.9581,2.962,2.9629,2.9653,2.9702,2.9746,2.975,2.9768,2.979,2.9791,2.9686,2.9672,2.9659,2.9641,2.9795,2.9795,2.9898,2.9899,2.99]},{"header":{"parameterUnit":"m.s-1","parameterCategory":1,"la1":30.2991,"la2":30.254,"lo1":-89.0895,"lo2":-89.0444,"dy":0.0017,"dx":0.0017,"nx":28,"ny":28,"refTime":"2023-08-15T03:00:00:Z","depth":0,"parameterNumber":3,"parameterNumberName":"V-component_of_WINDS"},"data":[0,0,0,0,0,0,0,0,0,0,0,0,0,0,0,0,0,0,0,0,0,0,0,0,0,0,0,0,0,0,0,0,0,0,0,0,0,0,0,0,0,0,0,0,0,0,0,0,0,0,0,0,0,0,0,0,0,0,-4.2225,-4.2225,0,-4.2235,-4.2235,-4.2235,-4.2189,-4.2187,-4.2186,-4.2185,-4.2193,-4.2194,-4.2196,0,0,0,0,0,0,0,0,0,0,0,0,0,-4.2164,-4.2165,-4.2225,-4.2225,-4.2225,-4.2235,-4.2235,-4.2235,-4.2189,-4.2187,-4.2186,-4.2184,-4.2192,-4.2194,-4.2196,0,0,0,0,0,0,0,0,0,0,0,0,0,-4.2184,-4.2166,-4.2225,-4.2203,-4.2201,-4.2235,-4.2235,-4.2235,-4.2189,-4.2187,-4.2185,-4.2183,-4.2192,-4.2194,-4.2196,-4.225,0,0,-4.2203,-4.2204,0,0,0,0,0,0,0,0,-4.2183,-4.2186,-4.2206,-4.2205,-4.2203,-4.2208,-4.2216,-4.224,-4.219,-4.2194,-4.2185,-4.2182,-4.22,-4.2201,-4.2207,-4.225,-4.2251,-4.2203,-4.2204,-4.2205,-4.2206,0,0,0,0,0,0,0,-4.2182,-4.2185,-4.2229,-4.2207,-4.2205,-4.2193,-4.2193,-4.2221,-4.2208,-4.2193,-4.219,-4.2192,-4.2198,-4.2205,-4.2207,-4.2251,-4.2203,-4.2205,-4.2206,-4.2207,-4.2337,-4.2339,0,0,0,0,0,0,-4.2183,-4.2185,-4.2228,-4.2229,-4.2188,-4.2195,-4.2196,-4.2209,-4.2207,-4.2205,-4.2194,-4.219,-4.2202,-4.2205,-4.2207,-4.2268,-4.2205,-4.2207,-4.2209,-4.2335,-4.2338,-4.234,0,0,0,0,0,0,-4.2182,-4.2188,-4.2228,-4.2206,-4.221,-4.2198,-4.2213,-4.221,-4.2217,-4.2208,-4.2205,-4.2203,-4.2201,-4.2204,-4.2239,-4.2268,-4.2208,-4.221,-4.2333,-4.2336,-4.2339,-4.2393,0,0,0,0,0,0,-4.2181,-4.2187,-4.2208,-4.2207,-4.2212,-4.2261,-4.2215,-4.2212,-4.2221,-4.2216,-4.2216,-4.2214,-4.22,-4.2236,-4.2242,-4.227,-4.2212,-4.233,-4.2334,-4.2338,-4.2388,-4.2397,-4.2405,0,0,0,0,0,-4.2179,-4.2223,-4.2209,-4.2215,-4.2237,-4.2262,-4.2265,-4.2248,-4.2224,-4.2244,-4.2238,-4.2214,-4.2265,-4.2241,-4.2246,-4.2276,-4.2328,-4.2333,-4.2338,-4.2384,-4.2395,-4.2405,0,0,0,0,0,0,-4.2227,-4.2222,-4.2207,-4.2252,-4.2258,-4.2255,-4.2279,-4.2261,-4.2273,-4.2268,-4.2246,-4.2246,-4.2285,-4.2284,-4.2257,-4.2327,-4.2292,-4.2298,-4.2326,-4.2336,-4.2345,-4.2343,-4.2214,0,0,0,0,0,-4.2243,-4.2264,-4.2259,-4.2299,-4.2303,-4.2291,-4.2301,-4.2288,-4.2293,-4.2295,-4.2292,-4.2297,-4.2314,-4.2325,-4.2341,-4.2389,-4.2387,-4.2412,-4.242,-4.2427,-4.2432,-4.2456,-4.2466,-4.2356,-4.2356,-4.2356,0,0,-4.2275,-4.2276,-4.229,-4.2309,-4.2312,-4.2334,-4.2293,-4.2318,-4.2334,-4.2299,-4.2331,-4.233,-4.2334,-4.2376,-4.2394,-4.2376,-4.2463,-4.2433,-4.2439,-4.244,-4.2462,-4.2472,-4.2482,-4.2359,-4.2359,-4.2358,0,0,-4.2346,-4.2349,-4.2382,-4.2387,-4.2392,-4.2384,-4.2392,-4.2392,-4.2389,-4.2422,-4.2396,-4.2414,-4.2444,-4.2448,-4.2454,-4.2527,-4.2505,-4.2533,-4.2576,-4.26,-4.2608,-4.2616,-4.264,-4.2649,-4.2539,-4.2539,-4.2539,0,-4.2385,-4.2418,-4.2402,-4.2428,-4.2437,-4.2407,-4.244,-4.2445,-4.2455,-4.2461,-4.2441,-4.2478,-4.2479,-4.252,-4.2538,-4.2545,-4.2552,-4.2532,-4.2609,-4.2616,-4.2623,-4.2646,-4.2655,-4.2542,-4.2541,-4.2541,-4.2541,0,-4.2466,-4.2489,-4.2515,-4.2526,-4.2537,-4.2567,-4.2554,-4.2568,-4.2555,-4.2549,-4.2582,-4.2583,-4.2597,-4.2607,-4.2593,-4.2646,-4.2635,-4.2613,-4.2576,-4.2637,-4.2658,-4.2667,-4.2546,-4.2545,-4.2544,-4.2544,0,0,-4.2564,-4.2567,-4.2576,-4.258,-4.2585,-4.2602,-4.2631,-4.2645,-4.2657,-4.2665,-4.2687,-4.2714,-4.2694,-4.2701,-4.2688,-4.2709,-4.2765,-4.2684,-4.2684,-4.2697,-4.2821,-4.2836,-4.2846,-4.2752,-4.2753,-4.2755,-4.282,0,-4.2631,-4.268,-4.2666,-4.2715,-4.2735,-4.2708,-4.2733,-4.2738,-4.2733,-4.275,-4.2744,-4.2763,-4.2736,-4.2739,-4.276,-4.2754,-4.2789,-4.275,-4.277,-4.2771,-4.2767,-4.2858,-4.2873,-4.2935,-4.2828,-4.283,-4.2831,0,-4.2715,-4.2728,-4.2778,-4.2779,-4.2787,-4.281,-4.2822,-4.2838,-4.2843,-4.2839,-4.2847,-4.283,-4.2857,-4.2824,-4.286,-4.2833,-4.2841,-4.284,-4.2842,-4.2841,-4.2803,-4.2857,-4.2954,-4.2963,-4.2844,-4.2843,-4.2842,0,-4.2779,-4.2809,-4.2842,-4.2847,-4.285,-4.2866,-4.2868,-4.2871,-4.2881,-4.2892,-4.2897,-4.2912,-4.2919,-4.293,-4.2917,-4.2894,-4.2955,-4.292,-4.295,-4.295,-4.2961,-4.296,-4.3059,-4.2971,-4.2971,-4.2971,-4.2971,0,-4.2854,-4.2885,-4.2871,-4.2891,-4.2926,-4.291,-4.2944,-4.2943,-4.2947,-4.2965,-4.2944,-4.2962,-4.2945,-4.2962,-4.2952,-4.2983,-4.2987,-4.2983,-4.2979,-4.2983,-4.2983,-4.2986,-4.298,-4.2974,-4.2973,-4.2973,-4.2972,0,-4.293,-4.2922,-4.2956,-4.2956,-4.2957,-4.2982,-4.2982,-4.3,-4.2995,-4.302,-4.3024,-4.3016,-4.3034,-4.3024,-4.3042,-4.3036,-4.3075,-4.3067,-4.3073,-4.307,-4.3099,-4.3096,-4.3201,-4.3213,-4.312,-4.3121,-4.3122,0,-4.2976,-4.3,-4.3003,-4.3015,-4.3018,-4.3037,-4.3047,-4.3033,-4.3045,-4.3053,-4.307,-4.3087,-4.3099,-4.313,-4.3125,-4.3139,-4.313,-4.3166,-4.3132,-4.3135,-4.3127,-4.3125,-4.3127,-4.3172,-4.3173,-4.3174,-4.3175,0,-4.306,-4.3055,-4.307,-4.3085,-4.3098,-4.3108,-4.3117,-4.3128,-4.3114,-4.3128,-4.3147,-4.3157,-4.3176,-4.3193,-4.3205,-4.3206,-4.3187,-4.3186,-4.3193,-4.3196,-4.3197,-4.3195,-4.3089,-4.3183,-4.3182,-4.3181,-4.3181,-4.3181,-4.312,-4.314,-4.3145,-4.3163,-4.3168,-4.3177,-4.3194,-4.3192,-4.3208,-4.3223,-4.3214,-4.3236,-4.3241,-4.3255,-4.3259,-4.3275,-4.3261,-4.3272,-4.3274,-4.3276,-4.3279,-4.3197,-4.3278,-4.3278,-4.3278,-4.3277,-4.3277,0,-4.32,-4.3203,-4.322,-4.3233,-4.3247,-4.3231,-4.324,-4.3252,-4.3272,-4.3278,-4.3292,-4.3313,-4.3329,-4.3326,-4.3341,-4.3355,-4.3346,-4.3359,-4.3356,-4.3356,-4.3293,-4.3284,-4.3365,-4.3365,-4.3365,-4.3365,-4.3365,-4.3365,-4.3243,-4.3274,-4.327,-4.3304,-4.3306,-4.3328,-4.3334,-4.3342,-4.3347,-4.3372,-4.3386,-4.3385,-4.3387,-4.3402,-4.3415,-4.3414,-4.3419,-4.3434,-4.3429,-4.337,-4.3361,-4.3352,-4.3344,-4.3436,-4.3436,-4.3491,-4.3492,-4.3492]}]]